Other Public Products
Issued by NWS Grand Forks, ND

Home | Current Version | Previous Version | Text Only | Print | Product List | Glossary Off
Versions: 1 2 3 4 5 6 7 8 9 10 11 12 13 14 15 16 17 18 19 20 21 22 23 24 25 26 27 28 29 30 31 32 33 34 35 36 37 38 39 40 41 42 43 44 45 46 47 48 49 50

000
FPUS83 KFGF 160510
OPUFGF
PRAIRIE TO PINES WEATHER ROUNDUP
NATIONAL WEATHER SERVICE EASTERN NORTH DAKOTA/GRAND FORKS ND
1200 AM CDT TUE SEP 16 2014

 **SATELLITE DATA USED TO AUGMENT SKY COVER AT AUTOMATED STATIONS**
 *****  WEATHER ACROSS EASTERN NORTH DAKOTA  *****

CITY           SKY/WX    TMP DP  RH WIND       PRES   REMARKS
GRAND FORKS    CLEAR     52  40  63 SW9       30.07F
GRAND FORKS AF CLEAR     48  42  80 SW10      30.08F
GRAND CITY NWS   N/A     50 N/A N/A SW6         N/A
BUXTON         NOT AVBL
DEVILS LAKE    CLEAR     54  39  58 SW7       30.07S
FARGO          CLEAR     54  38  54 SW14      30.13S
WAHPETON ARPT  CLEAR     43  34  70 S8        30.17S
$$

 *****  WEATHER ACROSS CENTRAL AND WESTERN NORTH DAKOTA  *****

CITY           SKY/WX    TMP DP  RH WIND       PRES   REMARKS
JAMESTOWN      CLEAR     48  38  68 S8        30.13S
BISMARCK       CLEAR     46  39  76 E3        30.12F
MINOT          CLEAR     48  37  65 SW7       30.06F
MINOT AFB      CLEAR     47  38  70 SW8       30.05F
GARRISON         N/A     46  41  82 CALM      30.08F
WILLISTON      CLEAR     39  33  79 CALM      30.06S
DICKINSON      CLEAR     45  38  76 S8        30.07F
HETTINGER      CLEAR     47  38  71 SE5       30.11S
$$

 *****  OTHER OBSERVATIONS NORTHEAST NORTH DAKOTA  *****

CITY           SKY/WX    TMP DP  RH WIND       PRES   REMARKS
WALHALLA       FAIR      55  37  50 SW8       30.02F
LANGDON        FAIR      45  37  76 SW7       30.05F
CAVALIER       FAIR      50  37  62 SW8       30.03F
GRAFTON        FAIR      46  39  76 SW8       30.05F
CANDO          FAIR      45  37  76 SW6       30.07S
FORT TOTTEN      N/A     49  37  61 S3        29.95S
ROLLA          FAIR      48  37  66 SW12      30.06S
RUGBY          FAIR      46  39  76 S8        30.07S
 ***** THE ABOVE OBSERVATIONS ARE NON NWS ARE NOT QUALITY
        CONTROLLED AND MAY MIS-REPORT RAIN FOR SNOW...
$$

 *****  OTHER OBSERVATIONS SOUTHEAST NORTH DAKOTA *****

CITY           SKY/WX    TMP DP  RH WIND       PRES   REMARKS
COOPERSTOWN    NOT AVBL
VALLEY CITY    FAIR      43  41  93 SW10      30.13F
OAKES            N/A     43  39  87 S8        30.17S
GWINNER        CLEAR     43  39  87 SW6       30.18S
BUFFALO        NOT AVBL
WYNDMERE         N/A     41  37  87 SW3         N/A
 ***** THE ABOVE OBSERVATIONS ARE NON NWS ARE NOT QUALITY
       CONTROLLED AND MAY MIS-REPORT RAIN FOR SNOW...
$$

  *****  WEATHER ACROSS NORTHERN MINNESOTA  *****

CITY           SKY/WX    TMP DP  RH WIND       PRES   REMARKS
FLAG ISLAND    PTCLDY    52  45  76 SW10      29.99F
WARROAD        PTCLDY    46  43  87 SW8       30.03F
ROSEAU         PTCLDY    46  41  81 SW9       30.03F
HALLOCK        CLEAR     43  37  81 SW6       30.03S
THF RVR FALLS  CLEAR     48  39  71 SW7       30.08S
HALSTAD          N/A     49  39  68 SW12        N/A
FOSSTON        CLEAR     45  37  76 SW10      30.11S
BAUDETTE       CLEAR     43  38  82 SW7       30.03F
WASKISH        CLEAR     46  41  81 CALM      30.06F
CROOKSTON      CLEAR     46  41  81 SW8       30.09F
$$
  *****  WEATHER ACROSS CENTRAL AND WEST MINNESOTA  *****

CITY           SKY/WX    TMP DP  RH WIND       PRES   REMARKS
BEMIDJI        CLEAR     46  38  73 SW7       30.11S
PARK RAPIDS    CLEAR     43  38  82 SW5       30.14S
WADENA         CLEAR     43  36  75 S6        30.16F
DETROIT LAKES  CLEAR     50  37  62 SW8       30.15S
MOORHEAD       CLEAR     48  43  81 SW8       30.14F
FERGUS FALLS   CLEAR     43  34  70 S6        30.18F
ELBOW LAKE     FAIR      41  36  81 S7        30.18F
MORRIS MN      CLEAR     43  36  75 S5        30.19S
STAPLES        CLEAR     43  36  75 S5        30.17S
WHEATON        CLEAR     43  36  75 S8        30.20
$$
  *****  WEATHER ELSEWHERE ACROSS MINNESOTA  *****

CITY           SKY/WX    TMP DP  RH WIND       PRES   REMARKS
DULUTH         CLEAR     46  35  65 SW9       30.14F
INTRNTL FALLS  PTCLDY    40  38  93 S3        30.05F
ELY            PTCLDY    41  36  81 CALM      30.10S
CLOQUET        CLEAR     45  36  70 SW7       30.15S
BRAINERD       CLEAR     42  37  82 SW5       30.17F
HIBBING        PTCLDY    34  31  88 CALM      30.12F FOG
ALEXANDRIA     CLEAR     44  38  79 SW8       30.20S
SAINT CLOUD    CLEAR     42  39  89 CALM      30.20F
MINNEAPOLIS    CLEAR     49  42  77 CALM      30.22S
$$

  *****  WEATHER ACROSS SOUTH DAKOTA  *****

CITY           SKY/WX    TMP DP  RH WIND       PRES   REMARKS
SIOUX FALLS    CLEAR     45  43  93 CALM      30.24S
BROOKINGS      NOT AVBL
WATERTOWN      CLEAR     42  37  82 SE3       30.21S
HURON          CLEAR     45  36  70 S5        30.21S
SISSETON         N/A     43  37  79 SW7       30.18S
ABERDEEN       CLEAR     41  35  79 S3        30.19S
MITCHELL       CLEAR     46  40  79 S3        30.23F
PIERRE         CLEAR     48  39  71 SE8       30.15F
MOBRIDGE       CLEAR     45  41  86 E8        30.12F
RAPID CITY     CLEAR     49  42  77 SE8       30.10F
$$

  *****  SOME WEATHER IN NEARBY STATES *****

CITY           SKY/WX    TMP DP  RH WIND       PRES   REMARKS
GLASGOW MT     CLEAR     51  37  58 E10       30.03S
GREAT FALLS MT CLEAR     49  39  68 SW6       30.02S
CHEYENNE WY    CLEAR     53  47  79 SW8       30.26F
SCOTTSBLUFF NE PTCLDY    55  47  74 E8        30.18R
OMAHA NE       CLEAR     50  47  89 CALM      30.27S
DES MOINES IA  CLEAR     51  46  83 CALM      30.25S
DAVENPORT IA   CLEAR     44  42  93 N5        30.22S
CHICAGO IL     PTCLDY    52  48  86 NW6       30.18R
EAU CLAIRE WI  CLEAR     41  38  89 SW3       30.21S
LA CROSSE WI   CLEAR     48  44  86 CALM      30.22S
$$

  *****  SOME NATIONAL WEATHER *****

CITY           SKY/WX    TMP DP  RH WIND       PRES   REMARKS
LA GUARDIA NY  MOCLDY    64  53  67 SW7       30.06F
RALEIGH NC     LGT RAIN  69  65  86 SW5       30.09F
ATLANTA GA     CLOUDY    72  70  93 CALM      30.14F
NEW ORLEANS LA MOCLDY    78  75  90 CALM      30.09S
OKLAHOMA CITY  CLOUDY    74  69  85 S7        30.15R
ALBUQUERQUE NM CLOUDY    68  57  68 SE6       30.31R
SALT LAKE CITY PTCLDY    71  40  32 S8        30.07S
LOS ANGELES CA CLEAR     80  61  52 SW6       29.75S
BOISE ID       MOCLDY    75  40  28 E8        29.94R
SEATTLE WA     MOCLDY    71  47  42 CALM      29.83R
$$

*** WEATHER ACROSS MANITOBA...SASKATCHEWAN AND ONTARIO ***
                ***ONTARIO***

CITY           SKY/WX    TMP DP  RH WIND       PRES   REMARKS
GERALDTON      PTCLDY    45  41  87 SW10      29.92F
THUNDER BAY    CLEAR     37  36  93 W5        30.04F
SIOUX LOOKOUT  PTCLDY    50  39  66 SW6       29.95F
TORONTO        CLOUDY    55  52  88 NW6       30.04F
BIG TROUT LK   CLOUDY    34  32  93 N12G21    29.86R
PICKLE LAKE    NOT AVBL
DRYDEN         PTCLDY    46  39  76 SW9       29.97F
KENORA         CLEAR     48  37  66 SW8       29.99F
$$
                *** MANITOBA***

CITY           SKY/WX    TMP DP  RH WIND       PRES   REMARKS
BRANDON        MOCLDY    50  43  76 W8        30.00F
DAUPHIN        MOCLDY    59  45  58 W10       29.92S
ISLAND LAKE    CLOUDY    37  37 100 CALM      29.97R
PILOT MOUND      N/A     45  37  76 SW7         N/A
THE PAS        CLOUDY    46  41  81 E10       30.00R
THOMPSON       PTCLDY    25  25 100 N5        30.07R WCI  19
WINNIPEG       MOCLDY    55  39  54 SW12G18   29.97F
LYNN LAKE      CLEAR     27  21  80 MISG      30.09S
CHURCHILL      LGT SNOW  32  30  93 N15G26    30.01R WCI  22
GILLAM         CLEAR     34  28  80 N13       30.04R WCI  25
$$
                ***SASKATCHEWAN***

CITY           SKY/WX    TMP DP  RH WIND       PRES   REMARKS
ESTEVAN        CLEAR     46  37  71 SW7       30.04S
KINDERSLEY     CLEAR     50  39  66 SE9       29.96F
LLOYDMINSTER   CLEAR     54  43  66 SE5       29.95S
PRINCE ALBERT  MOCLDY    46  45  93 CALM      29.94F
REGINA         CLEAR     46  39  76 S6        30.01F
YORKTON        CLOUDY    57  43  58 SW8       29.96S


USA.gov is the U.S. government's official web portal to all federal, state and local government web resources and services.